Location: Blangy-Tronville
(49.8790°N, 2.4226°E)
Time: 02:08:43
(UTC+00:00)

Cosmos 1464 Rocket - Pass Details

Date: 18 November 2025
Orbit: 950 x 1001 km, 82.9° (Epoch: 04 December)

Event Time Altitude Azimuth Distance (km) Brightness Sun altitude
Rises 17:41:24 0° 175° (S) 3,688 7.1 -15.6°
Reaches altitude 10° 17:43:57 10° 172° (S) 2,737 6.4 -16.0°
Maximum altitude 17:50:07 62° 94° (E) 1,095 4.0 -17.0°
Drops below altitude 10° 17:56:14 10° 15° (NNE) 2,721 6.1 -18.0°
Sets 17:58:46 0° 12° (NNE) 3,665 6.8 -18.4°
